Location: Unspecified
(41.1000°N, 0.0000°E)
Time: 14:08:20
(UTC+00:00)

CZ-6A DEB - Visible Passes

Search period start: 04 April 2026 00:00
Search period end: 14 April 2026 00:00
Orbit: 823 x 877 km, 98.8° (Epoch: 28 March)

Date Brightness Start Highest point End Pass type
(mag) Time Alt. Az. Time Alt. Az. Time Alt. Az.
7 Apr ? 04:59:50 10° NE 05:03:36 19° E 05:07:19 10° SE visible
8 Apr ? 04:48:29 10° ENE 04:51:22 14° E 04:54:14 10° ESE visible
9 Apr ? 04:37:52 10° ENE 04:39:07 11° E 04:40:21 10° ESE visible
